Location: Rumah Long Bangan
(2.8362°N, 113.7519°E)
Time: 06:32:38
(UTC+00:00)

Milstar 3 - Pass Details

Date: 24 October 2021
Orbit: 1090 x 5155 km, 28.2° (Epoch: 17 September)

Event Time Altitude Azimuth Distance (km) Brightness Sun altitude
Exits shadow 21:33:08 - 262° (W) 4,701 5.4 -9.4°
Reaches altitude 10° 21:34:15 10° 264° (W) 4,336 5.2 -9.1°
Maximum altitude 21:43:22 36° 328° (NNW) 1,998 3.8 -6.9°
Drops below altitude 10° 21:49:40 10° 34° (NE) 2,983 5.4 -5.3°
Sets 21:52:21 0° 44° (NE) 3,880 6.1 -4.7°
